TimePDT,TemperatureF,Dew PointF,Humidity,Sea Level PressureIn,VisibilityMPH,Wind Direction,Wind SpeedMPH,Gust SpeedMPH,PrecipitationIn,Events,Conditions,WindDirDegrees,DateUTC
12:53 AM,52.0,48.9,89,29.69,10.0,South,11.5,-,0.00,Rain,Light Rain,190,2013-09-30 07:53:00
1:53 AM,52.0,48.0,86,29.68,10.0,South,16.1,24.2,0.01,Rain,Light Rain,190,2013-09-30 08:53:00
2:53 AM,53.1,48.0,83,29.68,10.0,SSW,16.1,20.7,0.00,,Overcast,200,2013-09-30 09:53:00
3:53 AM,52.0,48.0,86,29.67,10.0,North,-9999.0,-,0.00,,Overcast,0,2013-09-30 10:53:00
4:53 AM,46.0,44.1,93,29.76,10.0,North,-9999.0,-,0.06,Rain,Light Rain,0,2013-09-30 11:53:00
5:53 AM,43.0,41.0,93,29.80,9.0,West,11.5,-,0.00,Rain,Light Rain,270,2013-09-30 12:53:00
6:53 AM,42.1,39.0,89,29.86,10.0,SW,9.2,-,0.01,,Overcast,230,2013-09-30 13:53:00
7:53 AM,41.0,37.9,89,29.90,10.0,WSW,5.8,-,N/A,,Scattered Clouds,250,2013-09-30 14:53:00
8:53 AM,45.0,37.9,76,29.92,10.0,West,9.2,-,N/A,,Overcast,260,2013-09-30 15:53:00
9:53 AM,48.0,36.0,63,29.92,10.0,WSW,20.7,27.6,N/A,,Partly Cloudy,250,2013-09-30 16:53:00
10:53 AM,50.0,37.0,61,29.93,10.0,WSW,17.3,25.3,N/A,,Mostly Cloudy,240,2013-09-30 17:53:00
11:53 AM,53.1,36.0,52,29.93,10.0,WSW,20.7,32.2,N/A,,Clear,240,2013-09-30 18:53:00
12:53 PM,55.0,36.0,49,29.92,10.0,SW,25.3,34.5,N/A,,Clear,220,2013-09-30 19:53:00
1:53 PM,55.9,34.0,44,29.92,10.0,SW,21.9,32.2,N/A,,Clear,230,2013-09-30 20:53:00
2:53 PM,57.0,32.0,39,29.92,10.0,West,17.3,29.9,N/A,,Clear,260,2013-09-30 21:53:00
3:53 PM,55.9,30.0,37,29.94,10.0,West,19.6,28.8,N/A,,Clear,260,2013-09-30 22:53:00
4:53 PM,55.9,28.9,36,29.96,10.0,West,13.8,23.0,N/A,,Clear,260,2013-09-30 23:53:00
5:53 PM,53.1,30.0,41,29.96,10.0,West,10.4,-,N/A,,Clear,260,2013-10-01 00:53:00
6:53 PM,48.0,30.9,52,29.98,10.0,WSW,9.2,-,N/A,,Clear,240,2013-10-01 01:53:00
7:53 PM,43.0,32.0,65,30.01,10.0,West,4.6,-,N/A,,Clear,280,2013-10-01 02:53:00
8:53 PM,36.0,32.0,86,30.02,10.0,WSW,4.6,-,N/A,,Clear,250,2013-10-01 03:53:00
9:53 PM,33.1,30.0,89,30.04,10.0,ESE,6.9,-,N/A,,Clear,120,2013-10-01 04:53:00
10:53 PM,33.1,30.9,92,30.04,10.0,WNW,3.5,-,N/A,,Partly Cloudy,300,2013-10-01 05:53:00
11:53 PM,33.1,30.9,92,30.03,10.0,SW,4.6,-,N/A,,Mostly Cloudy,230,2013-10-01 06:53:00